• En España
  • Lista de países
  • Para 7 días
  • Temperatura del agua
  • Mapa Satelital
  • El tiempo en el mapa
  • Informadores
  • user-avatar
    Iniciar sesión

    Tiempo cada hora Lubango

    Hoy, 22 Octubre, Lunes

    Tiempo Temperatura Precipitaciones Viento Presión Humedad
    00:00 +19°C° 1.1 mm 1 mps 609 mmHg 67%
    01:00 +19°C° 1.1 mm 1 mps 608 mmHg 70%
    02:00 +19°C° 0.2 mm 1 mps 608 mmHg 70%
    03:00 +19°C° 0.2 mm 1 mps 608 mmHg 70%
    04:00 +19°C° 0.2 mm 1 mps 608 mmHg 70%
    05:00 +19°C° 0.3 mm 1 mps 609 mmHg 67%
    06:00 +19°C° 0.3 mm 2 mps 609 mmHg 64%
    07:00 +20°C° 0.3 mm 2 mps 610 mmHg 60%
    08:00 +21°C° 0.5 mm 2 mps 610 mmHg 54%
    09:00 +24°C° 0.5 mm 2 mps 611 mmHg 48%
    10:00 +26°C° 0.5 mm 2 mps 612 mmHg 42%
    11:00 +26°C° 1.1 mm 2 mps 611 mmHg 41%
    12:00 +27°C° 1.1 mm 2 mps 611 mmHg 41%
    13:00 +27°C° 1.1 mm 2 mps 611 mmHg 40%
    14:00 +25°C° 4.5 mm 2 mps 610 mmHg 48%
    15:00 +24°C° 4.5 mm 3 mps 609 mmHg 56%
    16:00 +21°C° 4.5 mm 3 mps 608 mmHg 64%
    17:00 +20°C° 3.4 mm 3 mps 608 mmHg 67%
    18:00 +19°C° 3.4 mm 2 mps 608 mmHg 70%
    19:00 +18°C° 3.4 mm 2 mps 609 mmHg 73%
    20:00 +18°C° 0.7 mm 2 mps 609 mmHg 72%
    21:00 +18°C° 0.7 mm 2 mps 610 mmHg 72%
    22:00 +18°C° 0.7 mm 2 mps 610 mmHg 72%
    23:00 +18°C° 0 mm 2 mps 610 mmHg 72%

    Mañana, 23 Octubre, Martes

    Tiempo Temperatura Precipitaciones Viento Presión Humedad
    00:00 +18°C° 0 mm 1 mps 610 mmHg 73%
    01:00 +18°C° 0 mm 1 mps 609 mmHg 73%
    02:00 +18°C° 0 mm 1 mps 609 mmHg 74%
    03:00 +16°C° 0 mm 1 mps 609 mmHg 76%
    04:00 +16°C° 0 mm 1 mps 609 mmHg 77%
    05:00 +18°C° 0 mm 1 mps 609 mmHg 76%
    06:00 +18°C° 0 mm 1 mps 610 mmHg 74%
    07:00 +19°C° 0 mm 1 mps 610 mmHg 72%
    08:00 +19°C° 0.2 mm 2 mps 611 mmHg 65%
    09:00 +21°C° 0.2 mm 2 mps 611 mmHg 57%
    10:00 +24°C° 0.2 mm 2 mps 612 mmHg 50%
    11:00 +25°C° 0.6 mm 2 mps 612 mmHg 47%
    12:00 +26°C° 0.6 mm 2 mps 612 mmHg 43%
    13:00 +27°C° 0.6 mm 1 mps 612 mmHg 40%
    14:00 +26°C° 0.8 mm 2 mps 611 mmHg 42%
    15:00 +25°C° 0.8 mm 2 mps 611 mmHg 45%
    16:00 +24°C° 0.8 mm 2 mps 610 mmHg 47%
    17:00 +23°C° 0.9 mm 2 mps 610 mmHg 53%
    18:00 +21°C° 0.9 mm 2 mps 610 mmHg 60%
    19:00 +19°C° 0.9 mm 2 mps 610 mmHg 66%
    20:00 +19°C° 1 mm 2 mps 611 mmHg 69%
    21:00 +19°C° 1 mm 1 mps 611 mmHg 73%
    22:00 +19°C° 1 mm 1 mps 611 mmHg 76%
    23:00 +18°C° 0.5 mm 1 mps 611 mmHg 78%

    Pasado mañana, 24 Octubre, Miércoles

    Tiempo Temperatura Precipitaciones Viento Presión Humedad
    00:00 +18°C° 0.5 mm 1 mps 610 mmHg 79%
    01:00 +16°C° 0.5 mm 1 mps 610 mmHg 81%
    02:00 +16°C° 0.6 mm 1 mps 610 mmHg 81%
    03:00 +16°C° 0.6 mm 1 mps 609 mmHg 81%
    04:00 +16°C° 0.6 mm 1 mps 609 mmHg 82%
    05:00 +16°C° 0.3 mm 1 mps 609 mmHg 79%
    06:00 +18°C° 0.3 mm 1 mps 610 mmHg 76%
    07:00 +18°C° 0.3 mm 1 mps 610 mmHg 74%
    08:00 +20°C° 0.4 mm 1 mps 611 mmHg 67%
    09:00 +22°C° 0.4 mm 1 mps 612 mmHg 60%
    10:00 +24°C° 0.4 mm 1 mps 612 mmHg 53%
    11:00 +24°C° 1.8 mm 1 mps 612 mmHg 52%
    12:00 +24°C° 1.8 mm 1 mps 611 mmHg 52%
    13:00 +24°C° 1.8 mm 2 mps 611 mmHg 52%
    14:00 +24°C° 3.4 mm 2 mps 610 mmHg 56%
    15:00 +23°C° 3.4 mm 2 mps 609 mmHg 60%
    16:00 +21°C° 3.4 mm 2 mps 609 mmHg 64%
    17:00 +20°C° 2.8 mm 2 mps 609 mmHg 68%
    18:00 +19°C° 2.8 mm 2 mps 609 mmHg 73%
    19:00 +19°C° 2.8 mm 1 mps 609 mmHg 77%
    20:00 +19°C° 3.6 mm 1 mps 609 mmHg 79%
    21:00 +18°C° 3.6 mm 1 mps 610 mmHg 80%
    22:00 +18°C° 3.6 mm 1 mps 610 mmHg 82%
    23:00 +18°C° 1.2 mm 1 mps 610 mmHg 82%

    25 Octubre, Jueves

    Tiempo Temperatura Precipitaciones Viento Presión Humedad
    00:00 +18°C° 1.2 mm 1 mps 609 mmHg 83%
    01:00 +16°C° 1.2 mm 1 mps 609 mmHg 83%
    02:00 +16°C° 0.8 mm 1 mps 609 mmHg 83%
    03:00 +16°C° 0.8 mm 2 mps 608 mmHg 84%
    04:00 +16°C° 0.8 mm 2 mps 608 mmHg 84%
    05:00 +16°C° 0.6 mm 2 mps 609 mmHg 82%
    06:00 +17°C° 0.6 mm 2 mps 609 mmHg 80%
    07:00 +17°C° 0.6 mm 2 mps 609 mmHg 78%
    08:00 +18°C° 0.6 mm 3 mps 610 mmHg 72%
    09:00 +20°C° 0.6 mm 3 mps 610 mmHg 66%
    10:00 +21°C° 0.6 mm 3 mps 611 mmHg 60%
    11:00 +22°C° 1.1 mm 3 mps 611 mmHg 57%
    12:00 +24°C° 1.1 mm 2 mps 610 mmHg 54%
    13:00 +25°C° 1.1 mm 2 mps 610 mmHg 51%
    14:00 +24°C° 2.4 mm 2 mps 610 mmHg 53%
    15:00 +23°C° 2.4 mm 2 mps 609 mmHg 56%
    16:00 +23°C° 2.4 mm 2 mps 609 mmHg 59%
    17:00 +20°C° 2.7 mm 2 mps 609 mmHg 64%
    18:00 +19°C° 2.7 mm 2 mps 609 mmHg 69%
    19:00 +18°C° 2.7 mm 2 mps 610 mmHg 74%
    20:00 +18°C° 1.4 mm 2 mps 610 mmHg 75%
    21:00 +18°C° 1.4 mm 1 mps 610 mmHg 76%
    22:00 +18°C° 1.4 mm 1 mps 610 mmHg 78%
    23:00 +18°C° 0.9 mm 1 mps 610 mmHg 79%

    26 Octubre, Viernes

    Tiempo Temperatura Precipitaciones Viento Presión Humedad
    00:00 +16°C° 0.9 mm 1 mps 610 mmHg 79%
    01:00 +16°C° 0.9 mm 1 mps 609 mmHg 80%
    02:00 +16°C° 0.7 mm 1 mps 609 mmHg 81%
    03:00 +16°C° 0.7 mm 1 mps 609 mmHg 82%
    04:00 +15°C° 0.7 mm 1 mps 608 mmHg 83%
    05:00 +16°C° 0 mm 2 mps 609 mmHg 81%
    06:00 +16°C° 0 mm 2 mps 609 mmHg 79%
    07:00 +17°C° 0 mm 2 mps 610 mmHg 76%
    08:00 +19°C° 0.6 mm 2 mps 611 mmHg 68%
    09:00 +21°C° 0.6 mm 2 mps 611 mmHg 59%
    10:00 +24°C° 0.6 mm 2 mps 612 mmHg 50%
    11:00 +25°C° 0.8 mm 2 mps 612 mmHg 46%
    12:00 +27°C° 0.8 mm 1 mps 612 mmHg 41%
    13:00 +28°C° 0.8 mm 1 mps 612 mmHg 36%
    14:00 +28°C° 0.5 mm 1 mps 611 mmHg 39%
    15:00 +27°C° 0.5 mm 1 mps 611 mmHg 41%
    16:00 +26°C° 0.5 mm 1 mps 610 mmHg 43%
    17:00 +25°C° 1.1 mm 1 mps 610 mmHg 47%
    18:00 +24°C° 1.1 mm 1 mps 611 mmHg 51%
    19:00 +22°C° 1.1 mm 1 mps 611 mmHg 56%
    20:00 +21°C° 0.8 mm 1 mps 611 mmHg 59%
    21:00 +21°C° 0.8 mm 1 mps 611 mmHg 63%
    22:00 +20°C° 0.8 mm 1 mps 611 mmHg 66%
    23:00 +20°C° 1.1 mm 1 mps 611 mmHg 68%

    27 Octubre, Sábado

    Tiempo Temperatura Precipitaciones Viento Presión Humedad
    00:00 +19°C° 1.1 mm 1 mps 610 mmHg 70%
    01:00 +19°C° 1.1 mm 1 mps 610 mmHg 72%
    02:00 +19°C° 0.6 mm 1 mps 610 mmHg 72%
    03:00 +18°C° 0.6 mm 1 mps 609 mmHg 72%
    04:00 +18°C° 0.6 mm 1 mps 609 mmHg 73%
    05:00 +19°C° 0 mm 1 mps 610 mmHg 69%
    06:00 +20°C° 0 mm 1 mps 610 mmHg 66%
    07:00 +20°C° 0 mm 1 mps 611 mmHg 63%
    08:00 +21°C° 0.1 mm 2 mps 612 mmHg 55%
    09:00 +24°C° 0.1 mm 2 mps 612 mmHg 48%
    10:00 +26°C° 0.1 mm 2 mps 613 mmHg 41%
    11:00 +27°C° 0 mm 2 mps 612 mmHg 38%
    12:00 +28°C° 0 mm 1 mps 612 mmHg 36%
    13:00 +28°C° 0 mm 1 mps 611 mmHg 34%
    14:00 +28°C° 0.1 mm 1 mps 611 mmHg 34%
    15:00 +28°C° 0.1 mm 1 mps 611 mmHg 35%
    16:00 +28°C° 0.1 mm 2 mps 610 mmHg 36%
    17:00 +26°C° 0.1 mm 1 mps 610 mmHg 40%
    18:00 +25°C° 0.1 mm 1 mps 610 mmHg 44%
    19:00 +24°C° 0.1 mm 1 mps 610 mmHg 48%
    20:00 +23°C° 0.1 mm 1 mps 610 mmHg 50%
    21:00 +23°C° 0.1 mm 1 mps 610 mmHg 52%
    22:00 +22°C° 0.1 mm 1 mps 610 mmHg 55%
    23:00 +22°C° 0 mm 1 mps 610 mmHg 56%

    28 Octubre, Domingo

    Tiempo Temperatura Precipitaciones Viento Presión Humedad
    00:00 +21°C° 0 mm 1 mps 609 mmHg 58%
    01:00 +21°C° 0 mm 1 mps 609 mmHg 59%
    02:00 +20°C° 0 mm 1 mps 609 mmHg 60%
    03:00 +20°C° 0 mm 1 mps 608 mmHg 61%
    04:00 +19°C° 0 mm 1 mps 608 mmHg 62%
    05:00 +20°C° 0 mm 1 mps 609 mmHg 59%
    06:00 +21°C° 0 mm 1 mps 610 mmHg 56%
    07:00 +22°C° 0 mm 1 mps 610 mmHg 53%
    08:00 +24°C° 0 mm 2 mps 611 mmHg 45%
    09:00 +27°C° 0 mm 2 mps 612 mmHg 37%
    10:00 +29°C° 0 mm 3 mps 613 mmHg 28%
    11:00 +30°C° 0 mm 3 mps 613 mmHg 26%
    12:00 +31°C° 0 mm 2 mps 612 mmHg 23%
    13:00 +32°C° 0 mm 2 mps 612 mmHg 21%
    14:00 +31°C° 0 mm 2 mps 611 mmHg 24%
    15:00 +30°C° 0 mm 2 mps 611 mmHg 27%
    16:00 +29°C° 0 mm 2 mps 610 mmHg 31%
    17:00 +27°C° 0 mm 2 mps 610 mmHg 37%
    18:00 +25°C° 0 mm 2 mps 610 mmHg 44%
    19:00 +23°C° 0 mm 2 mps 610 mmHg 51%
    20:00 +23°C° 0 mm 2 mps 610 mmHg 54%
    21:00 +22°C° 0 mm 1 mps 610 mmHg 57%
    22:00 +21°C° 0 mm 1 mps 610 mmHg 61%
    23:00 +21°C° 0 mm 1 mps 610 mmHg 60%
    Mostrar más